Location: Croisilles
(50.1998°N, 2.8793°E)
Time: 03:19:35
(UTC+00:00)

Landsat 5 - Pass Details

Date: 21 January 2021
Orbit: 528 x 654 km, 98.2° (Epoch: 24 February)

Event Time Altitude Azimuth Distance (km) Brightness Sun altitude
Rises 17:36:36 0° 9° (N) 2,767 6.6 -11.4°
Reaches altitude 10° 17:38:49 10° 4° (N) 1,848 5.8 -11.8°
Maximum altitude 17:42:38 47° 291° (WNW) 732 4.3 -12.4°
Drops below altitude 10° 17:46:20 10° 217° (SW) 1,786 6.7 -12.9°
Sets 17:48:27 0° 211° (SSW) 2,664 7.6 -13.2°
